Tracking 22283 objects as of 28-Jan-2021
HD Live streaming from Space Station
objects crossing your sky now

STARLINK-1271

Track STARLINK-1271 now!
10-day predictions
STARLINK-1271 is classified as:


NORAD ID: 45217
Int'l Code: 2020-012AR
Perigee: 553.3 km
Apogee: 555.4 km
Inclination: 53.1 °
Period: 95.6 minutes
Semi major axis: 6925 km
RCS: Unknown
Launch date: February 17, 2020
Source: United States (US)
Launch site: AIR FORCE EASTERN TEST RANGE (AFETR)
aabbcc
Your satellite tracking list
Your tracking list is empty




NASA's NSSDC Master Catalog

Two Line Element Set (TLE):
1 45217U 20012AR  21027.65137634  .00001100  00000-0  92728-4 0  9995
2 45217  53.0590 128.0618 0001566  69.1082 291.0074 15.06398300 53717
Source of the keplerian elements: AFSPC